Location: Clarion
(42.7316°N, 93.7330°W)
Time: 09:13:46
(UTC+00:00)

BREEZE-M DEB (TANK) - Pass Details

Date: 22 April 2026
Orbit: 316 x 13396 km, 49.6° (Epoch: 17 May)

Event Time Altitude Azimuth Distance (km) Brightness Sun altitude
Rises 02:08:18 0° 296° (WNW) 2,168 8.1 -11.6°
Reaches altitude 10° 02:10:23 10° 316° (NW) 1,220 5.9 -12.0°
Maximum altitude 02:12:13 21° 12° (NNE) 848 4.0 -12.3°
Drops below altitude 10° 02:14:32 10° 66° (ENE) 1,570 4.8 -12.6°
Enters shadow 02:14:45 - 68° (ENE) 1,662 4.9 -12.7°
